Tracking 30743 objects as of 22-Jun-2025
HD Live streaming from Space Station
objects crossing your sky now

STARLINK-31200

Track STARLINK-31200 now!
10-day predictions
STARLINK-31200 is classified as:


NORAD ID: 58862
Int'l Code: 2024-019K
Perigee: 493.7 km
Apogee: 496.7 km
Inclination: 43.0 °
Period: 94.4 minutes
Semi major axis: 6866 km
RCS: Unknown
Launch date: January 29, 2024
Source: United States (US)
Launch site: AIR FORCE EASTERN TEST RANGE (AFETR)
Your satellite tracking list
Your tracking list is empty




NASA's NSSDC Master Catalog

Two Line Element Set (TLE):
1 58862U 24019K   25172.57417595  .00000060  00000-0  12140-4 0  9993
2 58862  43.0005 283.1034 0002130 264.8104  95.2504 15.25906172 79150
Source of the keplerian elements: AFSPC